Weather History for EHEH - August, 2014

Change the Weather History Date:

Monday, August 11, 2014

  Actual Average Record
Temperature  
Mean Temperature 64 °F -  
Max Temperature 71 °F 70 °F 91 °F (2003)
Min Temperature 56 °F 53 °F 48 °F (2001)
Degree Days  
Heating Degree Days 2    
Growing Degree Days 14 (Base 50)    
Moisture  
Dew Point 54 °F    
Average Humidity 71    
Maximum Humidity 88    
Minimum Humidity 37    
Precipitation  
Precipitation 0.12 in - - ()
Sea Level Pressure  
Sea Level Pressure 29.82 in    
Wind  
Wind Speed 14 mph ()    
Max Wind Speed 21 mph    
Max Gust Speed 30 mph    
Visibility 8.0 miles    
Events Rain , Thunderstorm    
Averages and records for this station are not official NWS values.
T = Trace of Precipitation, MM = Missing Value Source: Averaged Metar Reports

Daily Weather History Graph

Daily Weather History Graph

Search for Another Location

Airport or City:

Trip Planner

Search our weather history database for the weather conditions in past years. The results will help you decide how hot, cold, wet, or windy it might be!

Date:

Astronomy

Aug. 11, 2014 Rise Set
Actual Time 6:17 AM CEST 9:08 PM CEST
Civil Twilight 5:39 AM CEST 9:46 PM CEST
Nautical Twilight 4:49 AM CEST 10:36 PM CEST
Astronomical Twilight 3:47 AM CEST 11:37 PM CEST
Moon 9:10 PM CEST (8/11) 7:15 AM CEST (8/11)
Length of Visible Light 16h 07m
Length of Day
14h 51m
Full, 99% of the Moon is Illuminated
Aug 11
Full
Aug 17
Last Quarter
Aug 25
New
Sep 2
First Quarter
Sep 9
Full

Hourly Weather History & Observations

Time (CEST) Temp. Dew Point Humidity Pressure Visibility Wind Dir Wind Speed Gust Speed Precip Events Conditions
12:00 AM 61 °F 55 °F 73% 29.71 in 16 mi SW 13.4 mph - -   Scattered Clouds
12:25 AM 60.8 °F 55.4 °F 82% 29.71 in 6.2 mi SW 15.0 mph - N/A   Unknown
12:55 AM 59.0 °F 53.6 °F 82% 29.71 in 6.2 mi SW 12.7 mph - N/A   Partly Cloudy
1:00 AM 60 °F 54 °F 75% 29.73 in 15 mi SSW 13.4 mph - -  
1:25 AM 59.0 °F 53.6 °F 82% 29.71 in 6.2 mi SSW 13.8 mph - N/A   Unknown
1:55 AM 59.0 °F 53.6 °F 82% 29.71 in 6.2 mi SW 15.0 mph - N/A   Unknown
2:00 AM 59 °F 54 °F 78% 29.74 in 14 mi SSW 13.4 mph - -   Partly Cloudy
2:25 AM 59.0 °F 53.6 °F 82% 29.74 in 6.2 mi SSW 13.8 mph - N/A   Partly Cloudy
2:55 AM 59.0 °F 53.6 °F 82% 29.74 in 6.2 mi SSW 13.8 mph - N/A   Unknown
3:00 AM 58 °F 53 °F 80% 29.75 in 14 mi SSW 13.4 mph - -  
3:25 AM 59.0 °F 53.6 °F 82% 29.74 in 6.2 mi SSW 13.8 mph - N/A   Partly Cloudy
3:55 AM 59.0 °F 53.6 °F 82% 29.74 in 6.2 mi SSW 15.0 mph - N/A   Partly Cloudy
4:00 AM 58 °F 53 °F 77% 29.75 in 16 mi SSW 13.4 mph - -   Scattered Clouds
4:25 AM 57.2 °F 51.8 °F 82% 29.74 in 6.2 mi SSW 12.7 mph - N/A   Unknown
4:55 AM 57.2 °F 51.8 °F 82% 29.74 in 6.2 mi SSW 13.8 mph - N/A   Unknown
5:00 AM 58 °F 52 °F 76% 29.77 in 19 mi SSW 13.4 mph - -  
5:25 AM 57.2 °F 51.8 °F 82% 29.77 in 6.2 mi SSW 13.8 mph - N/A   Unknown
5:55 AM 57.2 °F 51.8 °F 82% 29.77 in 6.2 mi SSW 12.7 mph - N/A   Unknown
6:00 AM 57 °F 52 °F 79% 29.78 in 17 mi SSW 13.4 mph - -   Scattered Clouds
6:25 AM 57.2 °F 51.8 °F 82% 29.77 in 6.2 mi SSW 12.7 mph - N/A   Unknown
6:55 AM 57.2 °F 51.8 °F 82% 29.77 in 6.2 mi SSW 13.8 mph - N/A   Unknown
7:00 AM 57 °F 53 °F 80% 29.80 in 18 mi SSW 15.7 mph - -   Scattered Clouds
7:25 AM 57.2 °F 53.6 °F 88% 29.80 in 6.2 mi SSW 13.8 mph - N/A   Unknown
7:55 AM 59.0 °F 53.6 °F 82% 29.80 in 6.2 mi SSW 13.8 mph - N/A   Unknown
8:00 AM 59 °F 53 °F 75% 29.82 in 16 mi SSW 13.4 mph - -   Partly Cloudy
8:25 AM 59.0 °F 53.6 °F 82% 29.80 in 6.2 mi SSW 17.3 mph - N/A   Unknown
8:55 AM 60.8 °F 53.6 °F 77% 29.83 in 6.2 mi SW 17.3 mph - N/A   Partly Cloudy
9:00 AM 62 °F 54 °F 69% 29.83 in 14 mi SW 17.9 mph - -   Scattered Clouds
9:00 AM 60.8 °F 53.6 °F 77% 29.83 in 6.2 mi SW 18.4 mph - N/A   Scattered Clouds
9:08 AM 60.8 °F 53.6 °F 77% 29.83 in 6.2 mi SW 17.3 mph - N/A   Partly Cloudy
9:11 AM 60.8 °F 53.6 °F 77% 29.83 in 6.2 mi SW 17.3 mph - N/A   Partly Cloudy
9:25 AM 62.6 °F 53.6 °F 72% 29.83 in 6.2 mi SW 17.3 mph - N/A   Partly Cloudy
9:55 AM 62.6 °F 53.6 °F 72% 29.83 in 6.2 mi SW 16.1 mph - N/A   Partly Cloudy
10:00 AM 64 °F 55 °F 64% 29.85 in 19 mi SW 15.7 mph - -   Scattered Clouds
10:18 AM 64.4 °F 55.4 °F 73% 29.83 in 6.2 mi SW 16.1 mph - N/A   Mostly Cloudy
10:25 AM 64.4 °F 53.6 °F 68% 29.83 in 6.2 mi SW 16.1 mph - N/A   Scattered Clouds
10:29 AM 64.4 °F 53.6 °F 68% 29.83 in 6.2 mi SW 18.4 mph - N/A   Partly Cloudy
10:55 AM 66.2 °F 53.6 °F 64% 29.83 in 6.2 mi SW 17.3 mph - N/A   Scattered Clouds
11:00 AM 66 °F 53 °F 52% 29.86 in 19 mi SW 20.1 mph - -   Scattered Clouds
11:25 AM 66.2 °F 53.6 °F 64% 29.86 in 6.2 mi SW 18.4 mph - N/A   Mostly Cloudy
11:55 AM 66.2 °F 51.8 °F 60% 29.86 in 6.2 mi WSW 18.4 mph - N/A   Mostly Cloudy
12:00 PM 67 °F 53 °F 51% 29.87 in 19 mi WSW 17.9 mph - -   Partly Cloudy
12:25 PM 64.4 °F 57.2 °F 77% 29.86 in 6.2 mi WSW 13.8 mph - N/A   Mostly Cloudy
12:55 PM 68.0 °F 50.0 °F 52% 29.86 in 6.2 mi WSW 16.1 mph - N/A   Partly Cloudy
1:00 PM 68 °F 52 °F 46% 29.87 in 22 mi SW 15.7 mph - - Rain Rain
1:25 PM 66.2 °F 53.6 °F 64% 29.86 in 6.2 mi SW 15.0 mph - N/A   Mostly Cloudy
1:55 PM 71.6 °F 53.6 °F 53% 29.83 in 6.2 mi WSW 16.1 mph - N/A   Partly Cloudy
2:00 PM 70 °F 49 °F 37% 29.86 in 22 mi SW 17.9 mph - -   Partly Cloudy
2:25 PM 71.6 °F 51.8 °F 50% 29.83 in 6.2 mi SW 16.1 mph - N/A   Partly Cloudy
2:55 PM 69.8 °F 51.8 °F 53% 29.83 in 6.2 mi SSW 20.7 mph - N/A   Scattered Clouds
3:00 PM 71 °F 54 °F 44% 29.86 in 22 mi SSW 17.9 mph - -   Scattered Clouds
3:25 PM 69.8 °F 51.8 °F 53% 29.83 in 6.2 mi SW 17.3 mph - N/A   Scattered Clouds
3:29 PM 68.0 °F 51.8 °F 56% 29.83 in 6.2 mi SSW 16.1 mph - N/A   Mostly Cloudy
3:55 PM 69.8 °F 51.8 °F 53% 29.83 in 6.2 mi SW 16.1 mph - N/A   Mostly Cloudy
4:00 PM 68 °F 51 °F 44% 29.85 in 25 mi SW 20.1 mph - -   Overcast
4:17 PM 60.8 °F 55.4 °F 82% 29.86 in 6.2 mi West 13.8 mph 29.9 mph N/A Rain Rain
4:25 PM 59.0 °F 55.4 °F 88% 29.86 in 3.7 mi West 12.7 mph - N/A Rain , Thunderstorm Heavy Thunderstorms and Rain
4:30 PM 59.0 °F 55.4 °F 88% 29.86 in 6.2 mi WSW 13.8 mph - N/A Rain , Thunderstorm Thunderstorms and Rain
4:43 PM 62.6 °F 57.2 °F 82% 29.86 in 6.2 mi SW 11.5 mph - N/A   Mostly Cloudy
4:48 PM 62.6 °F 57.2 °F 82% 29.86 in 6.2 mi WSW 11.5 mph - N/A   Mostly Cloudy
4:55 PM 64.4 °F 57.2 °F 77% 29.86 in 6.2 mi WSW 11.5 mph - N/A   Scattered Clouds
5:00 PM 65 °F 58 °F 71% 29.86 in 25 mi WSW 11.2 mph - - Rain Rain
5:25 PM 66.2 °F 59.0 °F 78% 29.86 in 6.2 mi SW 12.7 mph - N/A   Partly Cloudy
5:55 PM 66.2 °F 53.6 °F 64% 29.86 in 6.2 mi SW 13.8 mph - N/A   Mostly Cloudy
6:00 PM 66 °F 54 °F 55% 29.86 in 28 mi SW 13.4 mph - -   Unknown
6:25 PM 66.2 °F 51.8 °F 60% 29.86 in 6.2 mi SW 18.4 mph - N/A   Overcast
6:55 PM 66.2 °F 53.6 °F 64% 29.86 in 6.2 mi SW 17.3 mph - N/A   Mostly Cloudy
7:00 PM 65 °F 53 °F 56% 29.86 in 25 mi SW 17.9 mph - -   Partly Cloudy
7:25 PM 66.2 °F 53.6 °F 64% 29.83 in 6.2 mi SSW 12.7 mph - N/A   Overcast
7:55 PM 64.4 °F 53.6 °F 68% 29.83 in 6.2 mi SSW 11.5 mph - N/A   Overcast
8:00 PM 64 °F 54 °F 61% 29.85 in 28 mi SSW 11.2 mph - -   Partly Cloudy
8:25 PM 62.6 °F 55.4 °F 77% 29.83 in 6.2 mi South 9.2 mph - N/A   Unknown
8:55 PM 62.6 °F 53.6 °F 72% 29.83 in 6.2 mi South 8.1 mph - N/A   Overcast
9:00 PM 61 °F 54 °F 71% 29.85 in 28 mi South 8.9 mph - -   Scattered Clouds
9:25 PM 60.8 °F 53.6 °F 77% 29.83 in 6.2 mi South 11.5 mph - N/A   Unknown
9:55 PM 60.8 °F 53.6 °F 77% 29.83 in 6.2 mi South 10.4 mph - N/A   Mostly Cloudy
10:00 PM 60 °F 53 °F 72% 29.85 in 28 mi South 11.2 mph - -   Mostly Cloudy
10:21 PM 60.8 °F 53.6 °F 77% 29.83 in 6.2 mi South 10.4 mph - N/A   Overcast
10:25 PM 60.8 °F 53.6 °F 77% 29.83 in 6.2 mi South 10.4 mph - N/A   Overcast
10:55 PM 60.8 °F 53.6 °F 77% 29.83 in 6.2 mi SSW 13.8 mph - N/A   Overcast
11:00 PM 60 °F 53 °F 72% 29.86 in 28 mi SSW 13.4 mph - -   Partly Cloudy
11:25 PM 59.0 °F 53.6 °F 82% 29.83 in 6.2 mi SSW 11.5 mph - N/A   Unknown
11:55 PM 59.0 °F 53.6 °F 82% 29.83 in 6.2 mi SSW 10.4 mph - N/A   Unknown